Temp
68 66 62 66 67 67 64 61 55 54 58 55 50 47 47 50 51 49 47 47 47 47 50 52 53 54 54 50 51 53 53 53 54 51 51 53 51 52 52 52 50 50 50 50
65 62 68 68 66 65 64 59 53 54 58 57 51 46 49 51 50 49 47 47 46 48 51 51 51 49 48 51 52 53 53 52 52 54 53 53 52 52 51 51 51 50 49 49
63 67 68 66 63 63 62 61 53 55 55 57 53 46 47 48 49 49 49 49 49 48 49 48 47 47 51 51 51 52 51 52 52 51 53 52 52 52 50 49 49 49 48 48
66 69 66 65 64 66 59 66 60 53 55 49 56 50 48 46 45 45 45 46 49 49 47 47 47 50 51 50 51 53 50 52 50 50 50 48 47 46 47 47 49 49 48 48
64 63 63 62 65 66 59 62 58 57 54 53 50 51 45 48 42 43 46 49 50 50 49 48 50 50 50 51 52 51 50 50 49 49 48 48 46 47 48 48 46 47 48 48
67 70 70 71 66 66 64 60 60 58 57 50 51 53 47 45 48 49 50 50 49 48 49 50 50 49 51 52 51 50 50 49 49 49 48 46 45 45 45 45 45 46 46 47
63 66 70 71 63 64 63 59 48 48 48 47 51 49 48 51 54 55 50 50 49 50 49 49 49 50 49 48 49 49 50 48 48 48 47 46 45 45 45 44 44 43 44 45
58 55 66 69 67 62 61 63 54 45 45 47 50 46 48 48 55 56 54 52 50 49 49 49 49 49 48 48 48 48 50 48 48 47 46 47 46 46 46 45 44 44 43 43
56 57 68 68 69 70 61 60 61 49 47 47 48 46 49 49 47 49 48 48 48 48 48 48 48 47 48 48 47 50 50 48 48 47 47 46 46 45 44 43 43 43 42 42
63 56 64 67 69 68 67 64 56 55 44 42 44 45 48 45 45 46 46 48 47 48 48 48 48 48 48 48 50 49 49 47 46 47 46 46 45 45 43 43 41 41 41 41
64 61 60 65 61 63 63 60 55 56 51 48 46 46 51 51 50 48 49 49 48 48 48 48 48 48 48 49 50 48 48 47 46 46 45 44 44 43 43 42 41 40 40 39
64 57 52 57 63 64 63 59 59 54 47 45 47 45 51 52 54 52 50 48 48 48 48 48 48 49 48 48 48 47 46 46 46 46 45 44 44 43 43 42 41 41 40 39
62 55 50 55 61 64 60 58 56 54 52 46 47 44 52 53 52 52 49 48 46 46 47 46 47 47 47 47 46 46 46 46 46 46 45 44 43 43 42 42 42 41 40 39
59 54 54 52 56 59 54 56 56 56 51 46 47 43 46 49 48 48 47 47 46 46 45 46 48 48 47 46 46 46 45 45 46 45 45 44 43 43 42 42 41 41 40 39
59 50 51 52 56 56 54 55 55 52 50 50 46 47 49 51 50 48 47 45 45 45 45 46 46 46 46 44 45 45 45 45 45 44 44 43 43 44 43 42 41 41 40 39
57 50 52 49 54 55 49 51 52 50 48 48 49 46 54 52 50 46 46 46 45 45 46 47 46 45 43 43 44 44 44 44 45 44 43 44 43 43 42 41 40 40 39 38
55 51 50 46 52 54 48 51 52 50 51 52 48 52 51 48 49 48 47 47 46 47 46 45 45 43 43 43 44 43 44 45 44 43 43 43 42 42 41 41 40 38 37 37
53 50 48 45 49 39 51 54 57 51 51 52 50 51 54 50 48 49 51 49 47 46 45 44 43 42 43 44 44 44 45 44 43 43 42 42 41 41 40 40 38 37 37 37
58 51 45 42 44 47 50 52 53 55 49 51 47 46 45 46 48 43 48 50 48 46 46 45 44 43 44 44 44 44 43 43 43 41 41 41 40 40 39 38 37 37 36 36
56 55 51 42 42 41 53 57 61 61 47 51 50 46 45 50 46 44 45 46 45 45 45 43 44 44 44 43 43 43 42 42 40 40 40 41 40 40 38 37 37 37 37 36
49 48 47 43 44 48 57 59 60 49 52 51 51 50 49 50 50 45 45 45 46 44 42 43 44 43 43 43 43 41 41 40 40 41 41 41 40 39 38 38 37 37 36 36
51 48 46 45 45 42 57 58 55 56 52 52 51 50 47 43 43 44 44 43 42 41 42 43 42 41 42 43 43 41 40 40 41 41 40 40 39 39 38 37 37 36 35 34
50 53 50 51 51 50 52 53 53 56 52 52 50 48 46 44 43 43 42 42 42 43 42 43 42 41 41 42 42 41 39 40 40 39 37 39 39 38 37 36 35 35 35 33
52 54 49 49 48 49 49 51 52 56 53 53 51 48 47 44 44 43 42 41 42 42 41 42 42 41 39 41 41 40 37 34 35 37 38 39 37 37 36 36 36 34 32 32
55 54 48 44 47 50 49 49 50 49 50 49 50 49 47 45 44 43 42 42 42 41 41 42 41 40 38 40 39 40 40 41 40 39 38 37 37 36 35 35 33 33 33 31
55 51 52 52 54 55 52 49 50 48 48 48 47 46 47 46 44 44 42 43 42 40 40 40 40 37 34 38 37 40 40 40 39 38 37 35 35 34 34 34 35 34 32 32
MSLP
1010.82 1010.88 1010.66 1010.46 1010.50 1010.67 1011.21 1012.22 1013.68 1015.51 1016.57 1017.63 1019.42 1021.06 1022.55 1023.56 1024.03 1024.66 1025.66 1026.22 1026.74 1027.32 1027.95 1028.19 1028.51 1028.77 1028.96 1029.25 1029.40 1029.44 1029.46 1029.52 1029.32 1029.30 1029.14 1028.91 1028.93 1028.81 1028.76 1028.77 1028.79 1028.48 1028.16 1027.80
1010.73 1010.26 1010.09 1010.22 1010.51 1010.79 1011.45 1012.47 1014.05 1015.97 1016.94 1017.76 1019.57 1021.21 1022.57 1023.56 1024.37 1025.12 1025.98 1026.58 1027.25 1027.83 1028.28 1028.65 1029.12 1029.46 1029.62 1029.73 1029.80 1029.91 1030.02 1030.07 1029.91 1029.52 1029.58 1029.51 1029.29 1029.09 1029.14 1029.02 1028.74 1028.53 1028.30 1027.94
1009.71 1009.49 1009.47 1010.01 1010.51 1010.79 1011.30 1011.92 1013.38 1014.75 1016.73 1017.79 1018.95 1020.77 1022.15 1023.58 1024.56 1025.53 1026.27 1026.90 1027.61 1028.04 1028.46 1029.11 1029.57 1029.94 1030.01 1030.09 1030.28 1030.36 1030.44 1030.34 1030.45 1030.37 1029.94 1029.73 1029.56 1029.32 1029.11 1028.92 1028.66 1028.52 1028.30 1027.92
1009.31 1009.27 1009.57 1009.78 1009.85 1010.26 1010.85 1011.01 1012.48 1014.11 1015.15 1016.66 1017.94 1019.13 1021.06 1022.76 1024.30 1025.50 1026.43 1027.11 1027.66 1028.30 1028.91 1029.36 1029.72 1029.97 1030.26 1030.61 1030.70 1030.60 1030.75 1030.71 1030.85 1030.73 1030.29 1030.10 1029.72 1029.46 1029.39 1029.11 1028.80 1028.44 1028.18 1027.83
1008.46 1008.80 1009.10 1009.18 1009.15 1009.71 1011.03 1011.20 1012.31 1013.74 1014.48 1015.67 1017.32 1018.35 1020.19 1021.91 1023.57 1024.88 1025.92 1026.87 1027.68 1028.41 1028.90 1029.42 1029.71 1030.23 1030.63 1030.71 1030.78 1030.97 1031.06 1031.05 1031.13 1030.87 1030.65 1030.29 1030.02 1029.88 1029.62 1029.26 1028.90 1028.43 1027.98 1027.62
1008.30 1008.30 1008.26 1008.25 1009.23 1009.69 1011.10 1011.73 1012.52 1013.44 1014.03 1014.97 1016.17 1017.47 1019.12 1020.87 1021.85 1023.52 1025.19 1026.44 1027.47 1028.34 1029.04 1029.53 1030.09 1030.51 1030.63 1030.82 1030.95 1031.08 1031.07 1031.15 1031.11 1030.91 1030.82 1030.59 1030.38 1030.14 1029.65 1029.24 1028.75 1028.26 1027.76 1027.34
1008.34 1008.12 1007.85 1007.94 1009.23 1010.63 1010.43 1010.84 1012.19 1013.01 1013.70 1014.67 1016.17 1017.56 1018.90 1020.32 1021.29 1022.25 1024.06 1025.90 1027.33 1028.41 1029.12 1029.62 1030.07 1030.37 1030.69 1030.93 1031.07 1031.25 1031.09 1031.09 1031.19 1031.06 1030.94 1030.83 1030.58 1030.27 1029.86 1029.43 1028.86 1028.35 1027.81 1027.31
1008.01 1008.10 1007.60 1007.58 1007.92 1008.83 1009.74 1009.85 1010.69 1011.77 1013.24 1014.60 1016.38 1017.65 1019.49 1021.11 1021.38 1022.36 1024.18 1025.86 1027.36 1028.41 1029.15 1029.67 1030.25 1030.61 1030.96 1031.16 1031.35 1031.40 1031.11 1031.18 1031.27 1031.27 1031.13 1030.92 1030.77 1030.41 1030.02 1029.63 1029.25 1028.70 1028.20 1027.67
1007.73 1007.63 1007.30 1007.44 1007.47 1007.89 1009.20 1009.88 1010.58 1011.73 1013.75 1014.66 1016.17 1018.34 1020.14 1021.49 1022.49 1023.51 1024.75 1026.05 1027.23 1028.33 1029.15 1029.90 1030.51 1030.91 1031.12 1031.30 1031.43 1031.30 1031.24 1031.41 1031.53 1031.48 1031.30 1031.11 1030.89 1030.59 1030.30 1029.97 1029.56 1029.08 1028.55 1027.92
1007.24 1007.66 1007.65 1007.71 1007.65 1008.18 1008.28 1009.53 1010.51 1011.41 1012.95 1014.28 1016.03 1017.63 1019.11 1021.08 1022.42 1023.79 1024.98 1026.04 1027.35 1028.42 1029.35 1030.14 1030.65 1030.95 1031.21 1031.37 1031.47 1031.57 1031.57 1031.68 1031.76 1031.66 1031.52 1031.26 1031.06 1030.84 1030.60 1030.15 1029.74 1029.28 1028.73 1028.09
1007.45 1007.57 1008.35 1008.16 1008.35 1008.28 1009.06 1009.63 1010.74 1011.60 1013.02 1013.93 1015.55 1017.44 1019.33 1020.37 1021.89 1023.33 1024.82 1026.17 1027.34 1028.49 1029.45 1030.23 1030.71 1031.01 1031.26 1031.48 1031.53 1031.79 1031.87 1031.86 1031.86 1031.82 1031.66 1031.45 1031.20 1031.00 1030.66 1030.23 1029.89 1029.38 1028.71 1028.11
1007.84 1008.33 1008.81 1009.19 1009.18 1009.01 1009.13 1009.83 1010.64 1011.55 1013.48 1014.75 1015.91 1018.26 1019.74 1020.43 1021.85 1023.37 1024.95 1026.48 1027.74 1028.78 1029.65 1030.28 1030.71 1031.05 1031.40 1031.62 1031.72 1031.91 1032.11 1032.05 1032.10 1032.00 1031.79 1031.53 1031.25 1030.99 1030.59 1030.20 1029.78 1029.24 1028.58 1028.06
1007.84 1008.99 1009.62 1009.87 1009.77 1009.59 1009.82 1010.76 1011.30 1012.12 1013.35 1014.77 1016.07 1018.70 1020.23 1021.05 1022.47 1023.89 1025.23 1026.86 1028.14 1029.11 1029.84 1030.43 1030.85 1031.13 1031.45 1031.80 1031.98 1032.13 1032.27 1032.27 1032.22 1032.08 1031.82 1031.51 1031.22 1030.91 1030.54 1030.09 1029.60 1029.06 1028.50 1028.02
1007.73 1009.40 1009.58 1010.10 1009.88 1010.27 1011.03 1011.69 1012.20 1012.58 1013.71 1015.21 1016.63 1018.84 1020.62 1021.69 1022.92 1024.53 1026.00 1027.26 1028.39 1029.25 1029.94 1030.44 1030.86 1031.29 1031.67 1032.04 1032.26 1032.38 1032.47 1032.52 1032.38 1032.15 1031.85 1031.50 1031.19 1030.91 1030.50 1030.05 1029.51 1029.00 1028.48 1027.88
1008.43 1010.22 1010.88 1011.27 1011.08 1011.11 1011.93 1012.54 1013.03 1013.63 1014.77 1015.42 1017.14 1018.50 1020.35 1021.78 1023.23 1024.81 1026.24 1027.57 1028.51 1029.32 1030.02 1030.57 1031.09 1031.57 1031.97 1032.34 1032.57 1032.70 1032.75 1032.67 1032.56 1032.27 1031.88 1031.56 1031.28 1030.93 1030.51 1030.02 1029.48 1029.02 1028.43 1027.98
1009.30 1011.23 1011.59 1012.46 1012.38 1012.20 1013.12 1013.82 1014.18 1014.88 1015.93 1016.71 1017.81 1019.57 1021.08 1022.63 1024.03 1025.42 1026.53 1027.46 1028.37 1029.31 1030.05 1030.73 1031.38 1031.87 1032.34 1032.69 1032.85 1032.96 1032.96 1032.91 1032.75 1032.41 1032.05 1031.76 1031.39 1030.97 1030.60 1030.14 1029.61 1029.06 1028.50 1028.04
1009.80 1011.09 1012.13 1013.50 1013.51 1013.37 1014.22 1014.56 1014.85 1015.72 1016.39 1016.99 1018.12 1019.53 1021.62 1023.21 1024.36 1025.33 1026.47 1027.46 1028.29 1029.33 1030.25 1031.00 1031.72 1032.30 1032.76 1033.06 1033.22 1033.23 1033.26 1033.19 1032.93 1032.65 1032.31 1031.94 1031.52 1031.08 1030.74 1030.33 1029.85 1029.28 1028.71 1028.22
1009.86 1011.13 1012.58 1013.96 1013.88 1014.34 1014.69 1014.87 1014.99 1015.71 1017.08 1017.90 1018.82 1020.33 1021.85 1023.47 1025.05 1025.94 1026.81 1027.48 1028.65 1029.75 1030.67 1031.55 1032.21 1032.83 1033.23 1033.38 1033.48 1033.58 1033.49 1033.35 1033.12 1032.81 1032.54 1032.15 1031.77 1031.32 1031.00 1030.55 1030.14 1029.64 1029.14 1028.57
1009.19 1010.92 1013.07 1014.16 1014.46 1014.91 1014.86 1015.09 1015.07 1015.26 1017.61 1018.70 1019.81 1021.67 1023.10 1024.51 1025.43 1027.06 1027.69 1028.29 1029.19 1030.26 1031.24 1032.02 1032.70 1033.19 1033.49 1033.64 1033.78 1033.71 1033.58 1033.49 1033.25 1033.04 1032.80 1032.46 1032.12 1031.66 1031.32 1030.91 1030.54 1030.12 1029.58 1028.91
1010.12 1010.64 1011.93 1014.18 1014.29 1014.27 1013.83 1014.03 1014.56 1015.02 1017.44 1018.99 1019.99 1021.63 1023.00 1024.13 1025.27 1027.05 1028.53 1029.31 1030.16 1031.03 1031.85 1032.57 1033.16 1033.57 1033.82 1034.04 1034.02 1033.85 1033.79 1033.69 1033.58 1033.50 1033.19 1032.84 1032.52 1032.08 1031.76 1031.44 1031.04 1030.66 1030.04 1029.30
1011.19 1011.94 1012.95 1013.89 1014.15 1014.18 1014.00 1014.26 1014.87 1015.66 1017.01 1018.43 1020.09 1021.35 1022.88 1024.01 1025.31 1026.96 1028.90 1030.00 1030.77 1031.60 1032.50 1033.14 1033.49 1033.84 1034.19 1034.31 1034.25 1034.12 1034.11 1034.10 1034.12 1033.88 1033.48 1033.14 1032.82 1032.48 1032.23 1031.89 1031.56 1030.99 1030.28 1029.57
1011.38 1012.35 1013.57 1014.30 1014.49 1014.67 1014.47 1015.15 1015.44 1016.00 1017.12 1018.27 1020.47 1021.94 1023.65 1025.11 1026.44 1027.83 1029.33 1030.38 1031.36 1032.21 1033.02 1033.50 1033.83 1034.26 1034.56 1034.60 1034.45 1034.44 1034.50 1034.64 1034.38 1034.07 1033.74 1033.43 1033.15 1032.87 1032.58 1032.28 1031.93 1031.42 1030.71 1029.87
1012.00 1012.10 1012.88 1014.13 1014.59 1014.89 1015.30 1015.59 1015.92 1016.37 1016.98 1019.39 1020.45 1022.64 1023.89 1025.37 1026.96 1028.39 1029.74 1030.89 1031.81 1032.57 1033.27 1033.83 1034.16 1034.58 1034.92 1034.99 1034.89 1034.76 1035.02 1034.91 1034.62 1034.31 1034.13 1033.79 1033.50 1033.24 1033.00 1032.73 1032.38 1031.79 1031.25 1030.45
1012.18 1012.42 1013.11 1014.39 1015.25 1015.65 1016.14 1016.65 1016.98 1017.25 1017.83 1019.34 1020.97 1022.52 1024.11 1025.49 1027.33 1028.78 1030.16 1031.29 1032.15 1032.99 1033.57 1034.15 1034.51 1034.85 1035.19 1035.34 1035.34 1035.35 1035.43 1035.22 1034.91 1034.61 1034.33 1034.12 1033.88 1033.63 1033.48 1033.31 1033.04 1032.59 1032.14 1031.41
1011.87 1012.50 1013.55 1014.99 1015.77 1016.33 1016.93 1017.45 1018.04 1018.63 1019.49 1020.65 1022.32 1023.07 1024.38 1025.69 1027.69 1028.91 1030.36 1031.50 1032.43 1033.28 1034.04 1034.45 1034.80 1035.20 1035.62 1035.68 1035.69 1035.68 1035.59 1035.36 1035.06 1034.91 1034.79 1034.61 1034.39 1034.19 1034.02 1033.91 1033.89 1033.48 1033.27 1033.03
1011.52 1012.11 1012.80 1013.35 1013.94 1014.91 1016.54 1018.08 1018.83 1019.18 1020.25 1021.31 1022.39 1024.41 1025.73 1026.15 1027.53 1029.22 1030.66 1031.78 1032.74 1033.66 1034.38 1034.84 1035.30 1035.73 1036.02 1036.02 1036.06 1035.98 1035.92 1035.70 1035.48 1035.22 1035.18 1035.33 1034.96 1034.82 1034.67 1034.35 1033.87 1033.92 1033.79 1033.42
Wind_Speed
3 4 8 10 7 3 3 4 6 4 5 7 12 11 9 8 9 10 10 11 13 13 12 12 11 11 12 10 11 11 11 11 8 5 5 5 4 5 5 5 7 8 8 9
4 7 10 7 7 4 5 7 5 6 8 7 9 9 8 6 6 8 10 11 13 13 12 11 10 10 10 10 10 10 9 8 8 7 5 3 5 4 5 5 7 8 9 9
7 2 9 7 5 6 5 7 10 7 11 8 13 6 5 6 11 9 10 10 11 12 12 9 8 8 8 9 7 7 7 9 7 6 5 5 3 3 5 7 7 8 9 9
6 5 6 5 6 8 7 10 15 19 8 4 7 2 5 8 8 8 9 9 11 11 9 8 8 8 8 6 5 7 6 6 6 6 6 8 7 7 7 7 8 8 10 10
7 9 7 5 7 10 1 9 16 11 6 6 6 5 5 10 7 9 11 12 11 9 9 8 8 7 4 5 5 5 5 6 5 6 8 7 8 6 7 7 10 10 10 11
4 1 5 5 6 8 17 19 9 4 3 3 5 5 6 7 10 13 13 13 12 10 9 8 7 4 5 4 4 4 5 5 6 7 8 9 9 9 10 11 10 10 9 9
2 4 1 3 11 9 2 5 4 2 3 2 2 5 5 3 3 14 18 16 13 11 9 8 6 5 4 3 3 2 4 7 6 8 9 8 8 10 11 12 10 13 10 10
7 6 7 5 7 10 9 3 5 5 4 3 2 4 4 6 3 11 14 14 13 11 8 7 5 4 3 2 3 3 6 7 7 8 9 9 9 7 9 12 11 9 10 10
6 3 1 0 3 4 5 3 3 8 3 2 2 3 5 6 9 12 14 14 13 11 9 7 5 3 3 3 4 5 6 6 7 8 8 9 9 10 11 13 12 10 12 11
5 5 2 2 2 10 2 9 4 2 4 3 2 2 2 8 9 10 12 13 12 11 9 7 5 4 3 5 5 6 6 6 6 7 8 8 9 10 11 11 12 13 12 13
4 2 2 0 4 6 4 4 6 5 2 2 1 3 3 8 13 14 13 12 13 12 10 8 5 3 5 5 6 5 5 6 6 7 8 8 8 9 11 11 11 12 13 13
1 4 5 2 1 0 1 4 4 3 4 2 1 4 7 7 13 13 12 11 11 11 10 8 6 6 5 4 5 6 5 6 6 6 7 8 7 9 11 11 12 13 14 13
7 2 5 2 1 2 6 3 6 7 3 4 3 5 6 11 12 11 14 12 11 12 10 7 5 4 5 5 5 5 5 6 6 7 8 9 8 9 11 12 13 14 15 13
8 4 4 6 4 4 5 3 3 3 3 7 2 9 6 11 13 12 12 12 13 11 10 8 6 6 5 5 5 5 6 6 6 7 9 10 9 10 11 12 14 14 15 14
4 6 4 7 4 6 5 5 4 4 5 1 11 11 13 13 13 11 13 13 13 12 10 8 7 5 6 5 5 5 6 6 7 8 9 10 10 10 12 13 14 14 15 13
3 4 3 9 8 10 10 9 12 8 9 13 14 11 7 11 13 13 13 14 13 11 10 9 8 7 5 5 5 5 6 7 8 9 10 10 10 11 13 13 14 15 15 14
4 7 3 4 2 5 6 2 3 5 3 11 11 9 12 13 12 14 14 13 13 12 11 10 8 6 6 5 5 6 6 7 8 9 10 11 11 12 13 13 14 16 15 14
8 6 3 4 1 1 3 4 4 13 6 5 11 18 15 14 10 10 9 12 13 13 11 9 7 7 6 5 5 4 6 7 8 10 11 11 12 12 13 13 15 15 13 14
5 7 6 5 2 1 1 6 9 8 4 6 13 15 16 16 14 8 6 9 13 13 10 9 8 7 6 5 4 4 6 7 9 11 11 11 12 12 13 13 15 14 14 13
10 10 6 3 4 5 2 6 6 6 4 12 13 19 20 15 7 6 9 13 14 12 10 10 9 7 6 5 4 5 6 7 9 10 10 10 11 12 13 13 14 14 12 13
4 4 5 3 3 2 2 6 7 4 5 19 19 20 19 9 3 19 16 14 13 12 12 10 8 7 6 5 4 6 6 8 8 9 10 10 11 11 12 12 13 14 14 13
4 5 3 3 4 4 3 6 5 3 8 19 18 17 13 16 20 20 17 15 14 13 12 10 9 7 5 5 5 6 8 7 7 9 10 11 11 10 9 13 12 14 14 15
2 3 6 2 2 2 2 2 2 7 18 15 20 16 20 23 21 19 17 14 13 13 10 8 9 8 6 6 6 7 7 7 8 9 10 11 11 11 11 12 12 11 14 13
2 2 5 5 2 2 2 5 4 12 12 19 19 24 22 24 21 19 15 13 12 11 10 9 9 8 7 6 7 7 5 3 5 8 10 10 11 11 11 9 10 10 12 13
2 6 7 4 2 6 4 5 11 17 19 22 19 21 24 24 20 19 16 14 12 11 10 8 8 7 7 6 7 7 7 7 8 8 9 10 9 11 10 10 9 10 11 12
5 8 6 5 13 3 7 10 16 21 22 22 25 20 18 22 22 20 15 13 12 11 10 9 8 8 4 5 6 7 7 7 8 8 8 9 8 9 8 8 8 10 12 14
Wind_Direction
169 167 201 198 195 171 143 101 115 109 133 77 97 112 114 124 125 116 115 117 108 99 96 89 87 85 81 70 70 59 54 42 40 34 19 21 20 22 27 19 13 9 1 350
132 214 211 201 184 147 136 137 117 84 110 92 121 101 113 122 106 117 128 118 116 113 102 94 82 73 70 76 71 66 58 47 40 37 24 359 5 20 6 2 4 357 350 347
168 268 169 172 153 178 194 199 178 141 115 90 136 134 152 94 105 105 114 120 126 127 121 110 88 76 85 77 71 69 61 53 42 31 31 21 360 357 360 0 352 350 342 342
205 162 155 183 209 190 242 224 148 141 161 149 211 159 177 158 127 129 141 143 142 130 121 115 111 93 78 85 83 70 59 58 48 27 34 29 22 7 360 348 345 342 342 337
207 164 169 185 217 173 16 134 132 138 102 142 168 245 109 154 175 174 167 157 147 141 140 125 103 97 104 97 68 70 71 56 38 40 29 19 18 7 350 347 339 341 337 338
165 212 191 169 58 129 123 110 97 89 124 225 155 236 152 187 192 178 169 166 157 150 139 120 107 124 94 75 72 105 73 54 36 31 25 20 11 356 352 351 343 342 335 334
170 222 227 142 83 159 134 158 104 156 202 257 135 194 48 255 225 184 171 167 161 155 150 141 131 110 79 72 107 107 56 53 36 27 20 9 2 357 351 348 342 338 339 338
170 199 187 175 168 183 185 197 163 206 200 144 148 237 76 14 121 147 155 153 151 155 157 138 126 92 93 116 122 67 52 49 35 20 11 9 8 358 353 349 343 338 338 335
163 228 35 149 142 165 169 186 93 104 54 182 135 114 129 93 101 125 139 150 157 160 156 143 131 131 159 134 95 62 58 56 30 18 11 10 6 3 355 350 348 345 339 334
188 121 72 155 139 57 132 133 138 78 156 232 168 212 99 176 156 146 152 160 158 158 149 148 149 148 137 116 92 66 69 50 26 17 11 4 3 1 357 354 357 351 344 341
151 100 146 101 10 147 142 122 65 109 39 226 216 115 36 192 172 167 167 164 163 158 154 153 140 135 121 106 83 69 56 37 23 11 3 360 360 360 359 359 354 350 346 346
152 105 80 89 358 22 71 107 130 113 166 64 20 104 352 206 164 160 156 155 152 149 150 146 138 123 132 102 84 71 46 32 14 4 357 356 352 356 359 356 350 348 348 349
175 34 103 39 117 134 63 40 86 95 109 165 189 123 34 123 133 143 143 143 143 145 147 145 138 128 114 108 87 64 42 21 8 358 354 353 347 352 354 353 348 347 348 349
93 89 133 171 170 116 102 74 85 91 137 146 111 136 143 142 133 132 131 136 141 150 152 152 143 116 110 95 77 58 33 12 1 356 352 351 347 346 348 347 346 348 349 349
90 94 83 42 68 86 89 91 79 90 114 215 148 142 163 157 147 142 137 138 148 158 160 153 136 115 111 96 77 44 24 8 358 351 351 352 348 346 349 347 349 350 353 353
36 115 111 51 61 99 91 83 92 83 110 90 122 116 138 121 119 137 149 155 159 160 156 140 127 114 113 95 63 38 24 13 354 354 353 351 350 350 355 353 353 353 355 357
91 134 103 105 57 110 86 145 125 112 101 139 143 145 143 141 146 154 155 160 157 154 144 137 122 111 110 91 54 44 16 1 5 2 357 356 354 352 357 355 358 358 358 357
120 93 71 121 69 119 32 313 158 115 92 110 108 139 148 135 114 123 151 150 143 138 133 126 119 112 103 83 63 40 13 11 10 6 359 358 358 359 1 1 3 1 0 0
83 115 96 131 106 4 115 172 155 150 149 144 132 125 123 126 109 78 115 136 133 133 125 117 114 111 100 75 51 15 17 17 15 6 360 359 360 3 3 5 5 3 2 359
70 71 102 142 132 183 207 179 165 138 147 166 152 147 148 156 161 143 142 127 123 122 123 121 115 107 92 61 19 23 29 22 14 1 358 360 3 5 5 3 6 2 2 360
65 42 103 132 120 263 239 144 158 197 154 162 164 156 156 159 39 132 133 125 122 122 119 117 110 95 79 54 48 44 24 20 1 356 360 4 7 6 8 8 13 7 4 1
133 125 130 119 107 188 142 124 194 115 119 144 153 152 128 117 123 129 131 130 128 123 124 120 110 95 75 50 45 39 30 6 2 5 9 8 9 11 8 13 16 15 9 5
127 165 158 213 117 44 31 13 45 141 140 148 140 139 135 133 134 135 135 135 133 132 127 123 114 101 71 51 35 36 22 13 10 17 10 11 12 16 17 20 20 17 13 8
75 143 95 160 76 104 71 80 75 137 139 142 140 139 141 135 139 137 138 136 133 135 131 128 117 103 84 58 51 49 29 360 15 16 14 14 17 13 23 28 21 20 14 7
170 139 125 84 96 122 68 96 119 116 121 123 132 141 140 136 142 141 141 140 138 134 131 129 119 110 91 68 56 41 33 18 19 20 17 15 19 18 24 35 26 21 27 17
192 154 175 184 171 122 131 138 141 131 136 135 131 133 139 139 141 144 141 140 139 135 134 126 122 116 110 80 56 46 37 27 22 25 21 22 20 23 26 25 24 46 25 19